Home > Time Zones > World Clock > Weather > Iran > Gorgan > Past weeks

Flag for Iran Weather past 2 weeks in Gorgan, Iran

Now
86 °F

Sunny.


Feels Like: 87 °F
Forecast: 73 / 99 °F
Wind: 7 mph from Southwest

Location: Gorgan Airport

Current Time: Jul 31, 2015 at 8:56:10 PM

Latest Report: Jul 31, 2015 at 8:30 PM


Visibility: 10 mi

Pressure: 29.83 "Hg

Humidity: 49%

Dew point: 64 °F

Location of GorganLocation

Historic Weather in Gorgan — Graph

°F

Gorgan temperature yesterday

Maximum temperature yesterday: 99 °F (at 2:30 PM)
Minimum temperature yesterday: 77 °F (at 6:30 AM)
Average temperature yesterday: 87 °F

Past Weeks' High & Low Weather Summary

 TemperatureHumidityPressure
High100 °F (Jul 19, 2:30 PM)100% (Jul 20, 1:30 AM)30.07 "Hg (Jul 20, 1:30 AM)
Low59 °F (Jul 22, 6:30 AM)27% (Jul 22, 12:30 PM)29.62 "Hg (Jul 27, 6:30 PM)
Average82 °F65%29.86 "Hg
* Reported Jul 16 7:30 PM — Jul 31 7:30 PM, Gorgan, Weather by CustomWeather, © 2015

Note: Actual official high and low records may vary slightly from our data, if they occured in-between our weather recording intervals... More about our weather records

Advertising

Gorgan weather history for previous 24 hours

 ConditionsComfort  
Time TempWeatherWind HumidityBarometerVisibility
7:30 PM
Fri, Jul 31
93 °FSunny.12 mph34%29.83 "Hg10 mi
6:30 PM99 °FSunny.No wind27%29.80 "Hg10 mi
5:30 PM82 °FPassing clouds.12 mph48%29.80 "HgN/A
4:30 PM100 °FPassing clouds.12 mph31%29.80 "HgN/A
3:30 PM100 °FPassing clouds.9 mph31%29.83 "HgN/A
3:00 PM100 °FPassing clouds.14 mph31%29.83 "HgN/A
2:30 PM100 °FPassing clouds.12 mph27%29.83 "HgN/A
2:00 PM100 °FPassing clouds.7 mph27%29.83 "HgN/A
1:30 PM97 °FPassing clouds.7 mph32%29.86 "HgN/A
12:30 PM97 °FPassing clouds.No wind32%29.86 "HgN/A
11:30 AM93 °FSunny.No wind39%29.92 "Hg10 mi
10:30 AM90 °FSunny.No wind46%29.89 "Hg10 mi
9:30 AM88 °FSunny.No wind55%29.89 "Hg10 mi
8:30 AM84 °FSunny.No wind70%29.89 "Hg10 mi
7:30 AM77 °FSunny.No wind83%29.86 "Hg10 mi
6:30 AM70 °FClear.No wind94%29.86 "Hg10 mi
5:30 AM72 °FClear.No wind94%29.86 "Hg10 mi
4:30 AM73 °FClear.No wind89%29.86 "Hg10 mi
3:30 AM73 °FClear.5 mph89%29.86 "Hg10 mi
2:30 AM75 °FClear.No wind83%29.86 "Hg10 mi
1:30 AM75 °FClear.No wind89%29.86 "Hg10 mi
12:30 AM77 °FClear.No wind83%29.89 "Hg10 mi
11:30 PM
Thu, Jul 30
79 °FClear.7 mph84%29.89 "Hg10 mi
10:30 PM79 °FClear.7 mph79%29.89 "Hg10 mi
10:00 PM81 °FClear.5 mph74%29.89 "Hg10 mi
9:30 PM82 °FSunny.7 mph70%29.89 "Hg10 mi
8:30 PM84 °FSunny.7 mph55%29.86 "Hg10 mi
Weather by CustomWeather, © 2015

See weather overviewHow to use our weather pages